Location: Newark
(48.1236°N, 0.7169°W)
Time: 11:23:24
(UTC+00:00)

Envisat - Pass Details

Date: 27 November 2019
Orbit: 764 x 766 km, 98.1° (Epoch: 15 December)

Event Time Altitude Azimuth Distance (km) Brightness Sun altitude
Rises 06:01:24 0° 23° (NNE) 3,243 6.3 -13.7°
Reaches altitude 10° 06:04:05 10° 36° (NE) 2,311 5.7 -13.3°
Maximum altitude 06:08:21 27° 93° (E) 1,459 5.4 -12.6°
Drops below altitude 10° 06:12:35 10° 150° (SSE) 2,296 6.2 -12.0°
Sets 06:15:13 0° 163° (SSE) 3,217 6.8 -11.6°
